Time,TemperatureF,DewpointF,PressureIn,WindDirection,WindDirectionDegrees,WindSpeedMPH,WindSpeedGustMPH,Humidity,HourlyPrecipIn,Conditions,Clouds,dailyrainin,SoftwareType,DateUTC
2013-09-29 00:12:00,53.8,50.0,30.24,East,98,0.0,-999.0,88,-99.99,,,0.00,weatherlink.com 1.10,2013-09-29 04:12:00,
2013-09-29 00:27:00,53.7,50.0,30.24,East,98,0.0,-999.0,88,-99.99,,,0.00,weatherlink.com 1.10,2013-09-29 04:27:00,
2013-09-29 00:42:00,53.3,50.0,30.23,East,98,0.0,-999.0,88,-99.99,,,0.00,weatherlink.com 1.10,2013-09-29 04:42:00,
2013-09-29 00:58:00,53.3,50.0,30.23,East,98,0.0,-999.0,88,-99.99,,,0.00,weatherlink.com 1.10,2013-09-29 04:58:00,
2013-09-29 01:13:00,53.4,50.0,30.23,East,98,0.0,-999.0,87,-99.99,,,0.00,weatherlink.com 1.10,2013-09-29 05:13:00,
2013-09-29 01:28:00,53.5,50.0,30.23,East,98,0.0,-999.0,87,-99.99,,,0.00,weatherlink.com 1.10,2013-09-29 05:28:00,
2013-09-29 01:43:00,53.4,50.0,30.23,East,98,0.0,-999.0,87,-99.99,,,0.00,weatherlink.com 1.10,2013-09-29 05:43:00,
2013-09-29 02:00:00,53.0,49.0,30.22,East,98,0.0,-999.0,87,-99.99,,,0.00,weatherlink.com 1.10,2013-09-29 06:00:00,
2013-09-29 02:15:00,53.0,50.0,30.22,East,98,0.0,-999.0,88,-99.99,,,0.00,weatherlink.com 1.10,2013-09-29 06:15:00,
2013-09-29 02:30:00,52.8,49.0,30.21,East,98,0.0,-999.0,88,-99.99,,,0.00,weatherlink.com 1.10,2013-09-29 06:30:00,
2013-09-29 02:45:00,52.7,50.0,30.21,East,98,0.0,-999.0,89,-99.99,,,0.00,weatherlink.com 1.10,2013-09-29 06:45:00,
2013-09-29 03:00:00,52.7,50.0,30.20,East,98,0.0,-999.0,89,-99.99,,,0.00,weatherlink.com 1.10,2013-09-29 07:00:00,
2013-09-29 03:21:00,52.8,50.0,30.20,East,98,0.0,-999.0,89,-99.99,,,0.00,weatherlink.com 1.10,2013-09-29 07:21:00,
2013-09-29 03:30:00,52.9,50.0,30.20,East,98,0.0,-999.0,89,-99.99,,,0.00,weatherlink.com 1.10,2013-09-29 07:30:00,
2013-09-29 03:46:00,53.0,50.0,30.19,East,98,0.0,-999.0,89,-99.99,,,0.00,weatherlink.com 1.10,2013-09-29 07:46:00,
2013-09-29 04:01:00,53.0,50.0,30.19,East,98,0.0,-999.0,89,-99.99,,,0.00,weatherlink.com 1.10,2013-09-29 08:01:00,
2013-09-29 04:16:00,53.0,50.0,30.19,East,98,0.0,-999.0,89,-99.99,,,0.00,weatherlink.com 1.10,2013-09-29 08:16:00,
2013-09-29 04:31:00,53.1,50.0,30.18,East,98,0.0,-999.0,89,-99.99,,,0.00,weatherlink.com 1.10,2013-09-29 08:31:00,
2013-09-29 04:47:00,52.8,50.0,30.19,East,98,0.0,-999.0,89,-99.99,,,0.00,weatherlink.com 1.10,2013-09-29 08:47:00,
2013-09-29 05:02:00,52.6,50.0,30.18,East,98,0.0,-999.0,89,-99.99,,,0.00,weatherlink.com 1.10,2013-09-29 09:02:00,
2013-09-29 05:17:00,52.9,50.0,30.18,East,98,1.0,-999.0,89,-99.99,,,0.00,weatherlink.com 1.10,2013-09-29 09:17:00,
2013-09-29 05:32:00,53.0,50.0,30.18,East,98,0.0,-999.0,89,-99.99,,,0.00,weatherlink.com 1.10,2013-09-29 09:32:00,
2013-09-29 05:47:00,52.9,50.0,30.18,East,98,0.0,-999.0,90,-99.99,,,0.00,weatherlink.com 1.10,2013-09-29 09:47:00,
2013-09-29 06:03:00,53.1,50.0,30.18,East,98,0.0,-999.0,90,-99.99,,,0.00,weatherlink.com 1.10,2013-09-29 10:03:00,
2013-09-29 06:18:00,53.1,50.0,30.18,East,98,0.0,-999.0,90,-99.99,,,0.00,weatherlink.com 1.10,2013-09-29 10:18:00,
2013-09-29 06:33:00,53.1,50.0,30.19,East,98,0.0,-999.0,90,-99.99,,,0.00,weatherlink.com 1.10,2013-09-29 10:33:00,
2013-09-29 06:50:00,52.7,50.0,30.19,East,98,0.0,-999.0,90,-99.99,,,0.00,weatherlink.com 1.10,2013-09-29 10:50:00,
2013-09-29 07:05:00,52.6,50.0,30.20,East,98,0.0,-999.0,90,-99.99,,,0.00,weatherlink.com 1.10,2013-09-29 11:05:00,
2013-09-29 07:20:00,52.6,50.0,30.20,East,98,0.0,-999.0,90,-99.99,,,0.00,weatherlink.com 1.10,2013-09-29 11:20:00,
2013-09-29 07:36:00,53.1,51.0,30.19,East,98,0.0,-999.0,91,-99.99,,,0.00,weatherlink.com 1.10,2013-09-29 11:36:00,
2013-09-29 07:50:00,53.6,51.0,30.20,East,98,0.0,-999.0,91,-99.99,,,0.00,weatherlink.com 1.10,2013-09-29 11:50:00,
2013-09-29 08:05:00,54.1,52.0,30.20,East,98,0.0,-999.0,91,-99.99,,,0.00,weatherlink.com 1.10,2013-09-29 12:05:00,
2013-09-29 08:20:00,54.9,53.0,30.20,East,98,0.0,-999.0,92,-99.99,,,0.00,weatherlink.com 1.10,2013-09-29 12:20:00,
2013-09-29 08:36:00,55.8,53.0,30.19,East,98,0.0,-999.0,91,-99.99,,,0.00,weatherlink.com 1.10,2013-09-29 12:36:00,
2013-09-29 08:51:00,57.5,55.0,30.20,East,98,0.0,-999.0,90,-99.99,,,0.00,weatherlink.com 1.10,2013-09-29 12:51:00,
2013-09-29 09:06:00,59.5,56.0,30.19,East,98,0.0,-999.0,87,-99.99,,,0.00,weatherlink.com 1.10,2013-09-29 13:06:00,
2013-09-29 09:21:00,61.1,56.0,30.20,East,98,2.0,-999.0,84,-99.99,,,0.00,weatherlink.com 1.10,2013-09-29 13:21:00,
2013-09-29 09:36:00,61.2,55.0,30.20,ESE,123,5.0,-999.0,81,-99.99,,,0.00,weatherlink.com 1.10,2013-09-29 13:36:00,
2013-09-29 09:52:00,62.0,56.0,30.20,ESE,118,4.0,-999.0,81,-99.99,,,0.00,weatherlink.com 1.10,2013-09-29 13:52:00,
2013-09-29 10:07:00,64.2,57.0,30.20,ESE,118,1.0,-999.0,77,-99.99,,,0.00,weatherlink.com 1.10,2013-09-29 14:07:00,
2013-09-29 10:23:00,64.8,56.0,30.20,SE,126,2.0,-999.0,73,-99.99,,,0.00,weatherlink.com 1.10,2013-09-29 14:23:00,
2013-09-29 10:38:00,65.0,55.0,30.19,ESE,103,1.0,-999.0,71,-99.99,,,0.00,weatherlink.com 1.10,2013-09-29 14:38:00,
2013-09-29 10:53:00,65.2,55.0,30.20,SE,130,1.0,-999.0,70,-99.99,,,0.00,weatherlink.com 1.10,2013-09-29 14:53:00,
2013-09-29 11:08:00,65.8,54.0,30.20,SSE,158,2.0,-999.0,66,-99.99,,,0.00,weatherlink.com 1.10,2013-09-29 15:08:00,
2013-09-29 11:25:00,65.5,55.0,30.19,East,97,1.0,-999.0,68,-99.99,,,0.00,weatherlink.com 1.10,2013-09-29 15:25:00,
2013-09-29 11:41:00,66.3,55.0,30.19,ESE,117,5.0,-999.0,66,-99.99,,,0.00,weatherlink.com 1.10,2013-09-29 15:41:00,
2013-09-29 11:55:00,65.6,55.0,30.19,SE,132,4.0,-999.0,68,-99.99,,,0.00,weatherlink.com 1.10,2013-09-29 15:55:00,
2013-09-29 12:10:00,64.9,54.0,30.18,SE,132,4.0,-999.0,67,-99.99,,,0.00,weatherlink.com 1.10,2013-09-29 16:10:00,
2013-09-29 12:25:00,65.8,55.0,30.17,ESE,111,0.0,-999.0,68,-99.99,,,0.00,weatherlink.com 1.10,2013-09-29 16:25:00,
2013-09-29 12:40:00,67.4,55.0,30.16,SE,130,2.0,-999.0,64,-99.99,,,0.00,weatherlink.com 1.10,2013-09-29 16:40:00,
2013-09-29 12:58:00,68.4,54.0,30.15,East,80,1.0,-999.0,60,-99.99,,,0.00,weatherlink.com 1.10,2013-09-29 16:58:00,
2013-09-29 13:12:00,67.9,55.0,30.15,ENE,66,2.0,-999.0,63,-99.99,,,0.00,weatherlink.com 1.10,2013-09-29 17:12:00,
2013-09-29 13:26:00,68.7,55.0,30.15,SE,134,1.0,-999.0,62,-99.99,,,0.00,weatherlink.com 1.10,2013-09-29 17:26:00,
2013-09-29 13:41:00,67.3,55.0,30.15,SE,134,0.0,-999.0,66,-99.99,,,0.00,weatherlink.com 1.10,2013-09-29 17:41:00,
2013-09-29 13:56:00,67.2,55.0,30.14,SE,134,2.0,-999.0,65,-99.99,,,0.00,weatherlink.com 1.10,2013-09-29 17:56:00,
2013-09-29 14:12:00,66.3,55.0,30.14,SE,134,0.0,-999.0,68,-99.99,,,0.00,weatherlink.com 1.10,2013-09-29 18:12:00,
2013-09-29 14:27:00,65.9,54.0,30.13,SE,132,1.0,-999.0,66,-99.99,,,0.00,weatherlink.com 1.10,2013-09-29 18:27:00,
2013-09-29 14:42:00,68.2,55.0,30.13,SSE,154,0.0,-999.0,63,-99.99,,,0.00,weatherlink.com 1.10,2013-09-29 18:42:00,
2013-09-29 14:58:00,68.7,55.0,30.12,ESE,121,0.0,-999.0,62,-99.99,,,0.00,weatherlink.com 1.10,2013-09-29 18:58:00,
2013-09-29 15:13:00,68.1,55.0,30.11,NE,36,0.0,-999.0,64,-99.99,,,0.00,weatherlink.com 1.10,2013-09-29 19:13:00,
2013-09-29 15:28:00,69.3,55.0,30.11,East,93,0.0,-999.0,61,-99.99,,,0.00,weatherlink.com 1.10,2013-09-29 19:28:00,
2013-09-29 15:43:00,69.6,55.0,30.10,SSE,161,2.0,-999.0,61,-99.99,,,0.00,weatherlink.com 1.10,2013-09-29 19:43:00,
2013-09-29 16:00:00,69.8,56.0,30.10,SE,127,4.0,-999.0,62,-99.99,,,0.00,weatherlink.com 1.10,2013-09-29 20:00:00,
2013-09-29 16:15:00,68.9,55.0,30.09,NE,54,0.0,-999.0,62,-99.99,,,0.00,weatherlink.com 1.10,2013-09-29 20:15:00,
2013-09-29 16:30:00,67.8,56.0,30.09,NE,54,0.0,-999.0,66,-99.99,,,0.00,weatherlink.com 1.10,2013-09-29 20:30:00,
2013-09-29 16:45:00,66.8,57.0,30.09,NE,54,0.0,-999.0,71,-99.99,,,0.00,weatherlink.com 1.10,2013-09-29 20:45:00,
2013-09-29 17:00:00,65.7,58.0,30.09,NE,54,0.0,-999.0,75,-99.99,,,0.00,weatherlink.com 1.10,2013-09-29 21:00:00,
2013-09-29 17:16:00,64.4,57.0,30.08,NE,54,0.0,-999.0,76,-99.99,,,0.00,weatherlink.com 1.10,2013-09-29 21:16:00,
2013-09-29 17:30:00,63.9,56.0,30.08,NE,54,0.0,-999.0,76,-99.99,,,0.00,weatherlink.com 1.10,2013-09-29 21:30:00,
2013-09-29 17:45:00,63.6,56.0,30.08,NE,54,0.0,-999.0,77,-99.99,,,0.00,weatherlink.com 1.10,2013-09-29 21:45:00,
2013-09-29 18:01:00,63.3,56.0,30.08,NE,54,0.0,-999.0,78,-99.99,,,0.00,weatherlink.com 1.10,2013-09-29 22:01:00,
2013-09-29 18:16:00,62.6,56.0,30.08,NE,54,0.0,-999.0,80,-99.99,,,0.00,weatherlink.com 1.10,2013-09-29 22:16:00,
2013-09-29 18:31:00,61.6,55.0,30.09,NE,54,0.0,-999.0,80,-99.99,,,0.00,weatherlink.com 1.10,2013-09-29 22:31:00,
2013-09-29 18:46:00,60.6,55.0,30.09,NE,54,0.0,-999.0,81,-99.99,,,0.00,weatherlink.com 1.10,2013-09-29 22:46:00,
2013-09-29 19:02:00,59.5,54.0,30.09,NE,54,0.0,-999.0,83,-99.99,,,0.00,weatherlink.com 1.10,2013-09-29 23:02:00,
2013-09-29 19:17:00,58.6,54.0,30.09,NE,54,0.0,-999.0,84,-99.99,,,0.00,weatherlink.com 1.10,2013-09-29 23:17:00,
2013-09-29 19:32:00,57.9,54.0,30.09,NE,54,0.0,-999.0,85,-99.99,,,0.00,weatherlink.com 1.10,2013-09-29 23:32:00,
2013-09-29 19:47:00,57.4,53.0,30.09,NE,54,0.0,-999.0,85,-99.99,,,0.00,weatherlink.com 1.10,2013-09-29 23:47:00,
2013-09-29 20:03:00,57.4,53.0,30.09,NE,54,0.0,-999.0,84,-99.99,,,0.00,weatherlink.com 1.10,2013-09-30 00:03:00,
2013-09-29 20:18:00,57.5,53.0,30.09,NE,54,0.0,-999.0,84,-99.99,,,0.00,weatherlink.com 1.10,2013-09-30 00:18:00,
2013-09-29 20:33:00,57.4,53.0,30.09,NE,54,0.0,-999.0,84,-99.99,,,0.00,weatherlink.com 1.10,2013-09-30 00:33:00,
2013-09-29 20:48:00,57.0,53.0,30.09,NE,54,0.0,-999.0,85,-99.99,,,0.00,weatherlink.com 1.10,2013-09-30 00:48:00,
2013-09-29 21:05:00,56.8,53.0,30.10,ENE,65,0.0,-999.0,86,-99.99,,,0.00,weatherlink.com 1.10,2013-09-30 01:05:00,
2013-09-29 21:20:00,56.6,53.0,30.10,ENE,65,0.0,-999.0,86,-99.99,,,0.00,weatherlink.com 1.10,2013-09-30 01:20:00,
2013-09-29 21:35:00,56.3,52.0,30.10,ENE,65,0.0,-999.0,86,-99.99,,,0.00,weatherlink.com 1.10,2013-09-30 01:35:00,
2013-09-29 21:50:00,56.0,52.0,30.10,ENE,66,0.0,-999.0,87,-99.99,,,0.00,weatherlink.com 1.10,2013-09-30 01:50:00,
2013-09-29 22:05:00,55.7,52.0,30.10,ENE,66,0.0,-999.0,87,-99.99,,,0.00,weatherlink.com 1.10,2013-09-30 02:05:00,
2013-09-29 22:20:00,55.2,51.0,30.10,ENE,66,0.0,-999.0,87,-99.99,,,0.00,weatherlink.com 1.10,2013-09-30 02:20:00,
2013-09-29 22:35:00,54.9,52.0,30.10,ENE,66,0.0,-999.0,88,-99.99,,,0.00,weatherlink.com 1.10,2013-09-30 02:35:00,
2013-09-29 22:50:00,54.4,51.0,30.10,ENE,66,0.0,-999.0,88,-99.99,,,0.00,weatherlink.com 1.10,2013-09-30 02:50:00,
2013-09-29 23:06:00,54.1,51.0,30.10,ENE,66,0.0,-999.0,89,-99.99,,,0.00,weatherlink.com 1.10,2013-09-30 03:06:00,
2013-09-29 23:21:00,53.6,50.0,30.09,ENE,66,0.0,-999.0,88,-99.99,,,0.00,weatherlink.com 1.10,2013-09-30 03:21:00,
2013-09-29 23:38:00,53.6,50.0,30.09,ENE,66,0.0,-999.0,88,-99.99,,,0.00,weatherlink.com 1.10,2013-09-30 03:38:00,
2013-09-29 23:51:00,53.6,50.0,30.09,ENE,66,0.0,-999.0,88,-99.99,,,0.00,weatherlink.com 1.10,2013-09-30 03:51:00,